GW6101 Weather Reports


Display with metric or nautical units.
time (UTC)temp
F
wind
direction
speed
MPH
gust
MPH
rain 1hr
in
rain 24hr
in
rain mn
in
humidity
%
barometer
mb
20260502123512 47 26 5.0 10.0 0.00 0.00 0.00 61 1015.2
20260502123020 47 32 2.0 11.0 0.00 0.00 0.00 61 1015.2
20260502122507 47 294 5.0 11.0 0.00 0.00 0.00 61 1015.3
20260502122011 47 323 3.0 10.0 0.00 0.00 0.00 62 1015.2
20260502121527 47 311 3.0 11.0 0.00 0.00 0.00 61 1015.2
20260502121010 47 309 4.0 11.0 0.00 0.00 0.00 61 1015.2
20260502120511 48 242 3.0 15.0 0.00 0.00 0.00 61 1015.2
20260502114514 47 360 8.0 14.0 0.00 0.00 0.00 61 1015.0
20260502114006 47 238 1.0 8.0 0.00 0.00 0.00 62 1014.9
20260502113505 47 352 4.0 10.0 0.00 0.00 0.00 62 1015.1
20260502113020 46 311 4.0 12.0 0.00 0.00 0.00 63 1015.2
20260502112508 46 286 6.0 12.0 0.00 0.00 0.00 63 1015.3
20260502112012 46 351 5.0 11.0 0.00 0.00 0.00 63 1015.2
20260502111523 46 344 4.0 11.0 0.00 0.00 0.00 62 1015.2
20260502111010 46 309 5.0 14.0 0.00 0.00 0.00 62 1015.0
20260502110510 46 5 5.0 15.0 0.00 0.00 0.00 62 1015.0
20260502110026 46 275 7.0 15.0 0.00 0.00 0.00 62 1015.0
20260502105512 46 293 6.0 13.0 0.00 0.00 0.00 62 1014.9
20260502105011 46 302 3.0 12.0 0.00 0.00 0.00 62 1014.9
20260502103017 47 262 3.0 11.0 0.00 0.00 0.00 64 1014.6
20260502102509 47 5 4.0 12.0 0.00 0.00 0.00 64 1014.6
20260502102008 47 289 3.0 15.0 0.00 0.00 0.00 63 1014.6
20260502101522 48 300 3.0 15.0 0.00 0.00 0.00 63 1014.5
20260502101010 48 259 7.0 14.0 0.00 0.00 0.00 62 1014.4
20260502100510 48 315 5.0 13.0 0.00 0.00 0.00 62 1014.5
20260502091504 50 319 4.0 11.0 0.00 0.00 0.00 61 1013.9
20260502091003 50 289 5.0 11.0 0.00 0.00 0.00 61 1013.8
20260502090503 50 290 2.0 11.0 0.00 0.00 0.00 61 1013.8
20260502071516 54 342 6.0 13.0 0.00 0.00 0.00 59 1012.9
20260502071006 54 279 3.0 13.0 0.00 0.00 0.00 59 1013.1
20260502070508 54 304 4.0 13.0 0.00 0.00 0.00 60 1013.1
20260502070020 54 296 4.0 11.0 0.00 0.00 0.00 61 1013.2
20260502065507 54 352 3.0 8.0 0.00 0.00 0.00 61 1013.3
20260502065011 54 306 2.0 14.0 0.00 0.00 0.00 61 1013.3
20260502064505 54 15 3.0 14.0 0.00 0.00 0.00 61 1013.3
20260502064003 54 352 2.0 10.0 0.00 0.00 0.00 62 1013.3
20260502063504 54 296 4.0 10.0 0.00 0.00 0.00 61 1013.3
20260502063010 54 314 0.0 8.0 0.00 0.00 0.00 62 1013.2
20260502062505 54 286 2.0 8.0 0.00 0.00 0.00 61 1013.3
20260502062008 54 333 0.0 8.0 0.00 0.00 0.00 62 1013.4
20260502061516 54 290 2.0 6.0 0.00 0.00 0.00 62 1013.4
20260502061006 54 320 0.0 6.0 0.00 0.00 0.00 61 1013.4
20260502060507 54 290 2.0 7.0 0.00 0.00 0.00 61 1013.4
20260502060018 55 312 1.0 7.0 0.00 0.00 0.00 61 1013.4
20260502055510 55 282 2.0 6.0 0.00 0.00 0.00 61 1013.5
20260502055008 55 252 1.0 7.0 0.00 0.00 0.00 61 1013.5
20260502054518 55 350 2.0 10.0 0.00 0.00 0.00 60 1013.6
20260502054009 55 301 3.0 10.0 0.00 0.00 0.00 60 1013.5
20260502053508 55 287 2.0 10.0 0.00 0.00 0.00 60 1013.6
20260502053008 55 344 0.0 8.0 0.00 0.00 0.00 60 1013.6
20260502052506 55 331 3.0 8.0 0.00 0.00 0.00 59 1013.7
20260502052007 55 246 1.0 9.0 0.00 0.00 0.00 59 1013.7
20260502051521 55 303 4.0 9.0 0.00 0.00 0.00 59 1013.8
20260502051005 55 311 2.0 12.0 0.00 0.00 0.00 59 1013.8
20260502050506 56 265 7.0 12.0 0.00 0.00 0.00 58 1013.7
20260502050014 56 312 3.0 10.0 0.00 0.00 0.00 59 1013.6
20260502045507 56 311 1.0 8.0 0.00 0.00 0.00 59 1013.5
20260502045011 56 279 3.0 8.0 0.00 0.00 0.00 59 1013.5
20260502044521 56 143 3.0 8.0 0.00 0.00 0.00 60 1013.5
20260502044007 56 292 2.0 8.0 0.00 0.00 0.00 61 1013.5
20260502043508 56 279 0.0 3.0 0.00 0.00 0.00 63 1013.5
20260502043022 56 312 1.0 3.0 0.00 0.00 0.00 62 1013.4
20260502042508 56 308 0.0 2.0 0.00 0.00 0.00 63 1013.4
20260502042011 56 333 1.0 2.0 0.00 0.00 0.00 62 1013.4
20260502041507 56 341 0.0 0.0 0.00 0.00 0.00 62 1013.1
20260502041004 56 9 0.0 2.0 0.00 0.00 0.00 62 1013.0
20260502040504 56 324 0.0 2.0 0.00 0.00 0.00 61 1012.9
20260502040012 56 5 0.0 5.0 0.00 0.00 0.00 61 1012.7
20260502035507 56 40 1.0 5.0 0.00 0.00 0.00 61 1012.9
20260502035014 56 350 1.0 4.0 0.00 0.00 0.00 61 1013.1
20260502034518 56 284 1.0 7.0 0.00 0.00 0.00 61 1013.0
20260502034008 57 301 1.0 7.0 0.00 0.00 0.00 60 1012.9
20260502033507 57 352 1.0 5.0 0.00 0.00 0.00 59 1012.8
20260502033022 57 310 2.0 7.0 0.00 0.00 0.00 58 1012.7
20260502032511 57 308 2.0 7.0 0.00 0.00 0.00 58 1012.7
20260502032013 58 67 1.0 13.0 0.00 0.00 0.00 58 1012.7
20260502031523 58 326 3.0 13.0 0.00 0.00 0.00 57 1012.5
20260502031010 58 339 6.0 13.0 0.00 0.00 0.00 56 1012.4
20260502030505 59 289 6.0 12.0 0.00 0.00 0.00 56 1012.4
20260502030012 59 257 4.0 8.0 0.00 0.00 0.00 57 1012.3
20260502025504 59 308 1.0 6.0 0.00 0.00 0.00 57 1012.2
20260502025006 59 310 1.0 8.0 0.00 0.00 0.00 55 1012.1
20260502024533 59 279 3.0 8.0 0.00 0.00 0.00 55 1012.1
20260502024009 60 296 2.0 4.0 0.00 0.00 0.00 55 1012.1
20260502023510 60 282 1.0 4.0 0.00 0.00 0.00 53 1012.0
20260502023020 60 277 0.0 2.0 0.00 0.00 0.00 53 1011.8
20260502022507 61 292 0.0 2.0 0.00 0.00 0.00 49 1011.7
20260502022009 61 295 0.0 2.0 0.00 0.00 0.00 48 1011.7
20260502021524 61 232 0.0 1.0 0.00 0.00 0.00 48 1011.8
20260502021009 61 251 0.0 2.0 0.00 0.00 0.00 47 1011.7
20260502020509 61 256 0.0 2.0 0.00 0.00 0.00 46 1011.6
20260502020024 61 240 0.0 3.0 0.00 0.00 0.00 46 1011.8
20260502015509 62 250 1.0 3.0 0.00 0.00 0.00 46 1011.8
20260502015006 62 223 1.0 3.0 0.00 0.00 0.00 46 1011.7
20260502014526 62 240 1.0 3.0 0.00 0.00 0.00 45 1011.6
20260502014007 62 231 0.0 3.0 0.00 0.00 0.00 46 1011.6
20260502013506 62 244 0.0 3.0 0.00 0.00 0.00 45 1011.6
20260502013019 62 239 0.0 2.0 0.00 0.00 0.00 45 1011.5
20260502012506 63 229 0.0 5.0 0.00 0.00 0.00 41 1011.4
20260502012009 63 230 1.0 5.0 0.00 0.00 0.00 40 1011.2
20260502011524 63 167 1.0 4.0 0.00 0.00 0.00 39 1011.0
20260502011011 63 221 0.0 4.0 0.00 0.00 0.00 39 1010.8
20260502010511 63 221 2.0 4.0 0.00 0.00 0.00 38 1010.6
20260502010028 63 187 0.0 4.0 0.00 0.00 0.00 40 1010.4
20260502005510 63 187 0.0 4.0 0.00 0.00 0.00 38 1010.3
20260502005011 63 169 1.0 4.0 0.00 0.00 0.00 38 1010.2
20260502004526 63 206 0.0 2.0 0.00 0.00 0.00 37 1010.2
20260502004010 64 175 1.0 3.0 0.00 0.00 0.00 37 1010.2
20260502003508 64 146 1.0 5.0 0.00 0.00 0.00 37 1010.1
20260502003015 64 224 1.0 5.0 0.00 0.00 0.00 36 1010.1
20260502002507 64 234 0.0 6.0 0.00 0.00 0.00 36 1010.1
20260502002009 64 215 1.0 6.0 0.00 0.00 0.00 37 1010.0
20260502001522 64 210 1.0 5.0 0.00 0.00 0.00 37 1010.1
20260502001008 64 214 1.0 5.0 0.00 0.00 0.00 36 1010.0
20260502000513 64 205 0.0 5.0 0.00 0.00 0.00 36 1010.1
20260502000024 64 238 1.0 4.0 0.00 0.00 0.00 35 1010.1
20260501235514 64 211 1.0 4.0 0.00 0.00 0.00 35 1010.1
20260501235010 65 184 1.0 8.0 0.00 0.00 0.00 35 1010.0
20260501234525 65 234 2.0 8.0 0.00 0.00 0.00 34 1010.0
20260501234008 65 183 1.0 8.0 0.00 0.00 0.00 34 1009.8
20260501233511 65 183 3.0 9.0 0.00 0.00 0.00 34 1009.8
20260501233026 65 204 2.0 9.0 0.00 0.00 0.00 34 1009.7
20260501232507 65 142 2.0 9.0 0.00 0.00 0.00 34 1009.6
20260501232006 65 165 4.0 10.0 0.00 0.00 0.00 34 1009.6
20260501231521 65 202 2.0 10.0 0.00 0.00 0.00 34 1009.7
20260501231010 65 188 1.0 9.0 0.00 0.00 0.00 34 1009.7
20260501230509 65 242 4.0 9.0 0.00 0.00 0.00 35 1009.8
20260501230024 65 88 2.0 10.0 0.00 0.00 0.00 35 1009.7
20260501225513 66 215 2.0 10.0 0.00 0.00 0.00 34 1009.7
20260501225010 66 177 4.0 10.0 0.00 0.00 0.00 34 1009.7
20260501224524 66 173 3.0 11.0 0.00 0.00 0.00 34 1009.7
20260501224016 66 185 4.0 11.0 0.00 0.00 0.00 34 1009.8
20260501223508 66 255 4.0 14.0 0.00 0.00 0.00 34 1009.9
20260501223033 67 209 5.0 14.0 0.00 0.00 0.00 34 1009.8
20260501222508 67 254 1.0 11.0 0.00 0.00 0.00 34 1009.9
20260501222014 67 246 3.0 15.0 0.00 0.00 0.00 34 1010.0
20260501221525 66 162 5.0 16.0 0.00 0.00 0.00 33 1009.9
20260501221014 66 244 8.0 16.0 0.00 0.00 0.00 33 1010.0
20260501220510 66 212 7.0 13.0 0.00 0.00 0.00 33 1010.0
20260501220023 66 247 4.0 13.0 0.00 0.00 0.00 32 1010.1
20260501215508 67 170 5.0 12.0 0.00 0.00 0.00 31 1010.1
20260501215013 67 151 2.0 15.0 0.00 0.00 0.00 32 1010.0
20260501214528 67 158 4.0 15.0 0.00 0.00 0.00 32 1010.1
20260501214009 67 212 6.0 13.0 0.00 0.00 0.00 32 1010.1
20260501213509 68 238 4.0 13.0 0.00 0.00 0.00 30 1010.1
20260501213025 67 173 3.0 15.0 0.00 0.00 0.00 31 1010.1
20260501212013 68 233 5.0 13.0 0.00 0.00 0.00 30 1010.2
20260501211528 68 128 5.0 14.0 0.00 0.00 0.00 31 1010.3
20260501211012 68 275 5.0 14.0 0.00 0.00 0.00 30 1010.2
20260501210508 68 245 4.0 14.0 0.00 0.00 0.00 31 1010.2
20260501210026 68 171 6.0 18.0 0.00 0.00 0.00 31 1010.4
20260501205510 68 254 6.0 18.0 0.00 0.00 0.00 30 1010.4
20260501205008 68 196 6.0 13.0 0.00 0.00 0.00 32 1010.3
20260501204526 68 246 3.0 15.0 0.00 0.00 0.00 33 1010.3
20260501204008 68 223 6.0 15.0 0.00 0.00 0.00 33 1010.3
20260501203508 67 173 5.0 13.0 0.00 0.00 0.00 32 1010.3
20260501203040 67 187 5.0 13.0 0.00 0.00 0.00 33 1010.4
20260501202510 67 288 4.0 14.0 0.00 0.00 0.00 32 1010.4
20260501202011 68 226 7.0 14.0 0.00 0.00 0.00 31 1010.7
20260501201528 67 228 3.0 18.0 0.00 0.00 0.00 33 1010.7
20260501201007 67 169 8.0 18.0 0.00 0.00 0.00 32 1010.8
20260501200506 68 268 5.0 13.0 0.00 0.00 0.00 32 1010.8
20260501200021 66 215 5.0 12.0 0.00 0.00 0.00 33 1010.9
20260501195503 66 169 5.0 13.0 0.00 0.00 0.00 34 1011.0
20260501195003 67 159 6.0 13.0 0.00 0.00 0.00 33 1011.2
20260501194504 68 170 4.0 12.0 0.00 0.00 0.00 32 1011.3
20260501194003 67 192 4.0 11.0 0.00 0.00 0.00 33 1011.3
20260501193503 67 208 3.0 15.0 0.00 0.00 0.00 33 1011.4
20260501193007 66 244 6.0 15.0 0.00 0.00 0.00 33 1011.6
20260501192507 67 236 5.0 14.0 0.00 0.00 0.00 33 1011.6
20260501192004 67 132 5.0 17.0 0.00 0.00 0.00 34 1011.7
20260501191509 66 254 6.0 17.0 0.00 0.00 0.00 34 1011.8
20260501191006 66 203 5.0 15.0 0.00 0.00 0.00 33 1011.9
20260501190507 67 253 6.0 14.0 0.00 0.00 0.00 33 1012.0
20260501190013 66 261 5.0 17.0 0.00 0.00 0.00 35 1011.9
20260501185506 66 187 6.0 17.0 0.00 0.00 0.00 33 1012.1
20260501185007 66 225 5.0 14.0 0.00 0.00 0.00 34 1012.1
20260501184547 67 252 4.0 12.0 0.00 0.00 0.00 33 1012.0
20260501184003 66 180 3.0 12.0 0.00 0.00 0.00 33 1012.1
20260501183503 65 109 3.0 12.0 0.00 0.00 0.00 34 1012.3
20260501183005 65 254 3.0 14.0 0.00 0.00 0.00 35 1012.4
20260501182504 66 190 2.0 14.0 0.00 0.00 0.00 34 1012.5
20260501182007 66 268 4.0 11.0 0.00 0.00 0.00 35 1012.6
20260501181509 65 285 3.0 11.0 0.00 0.00 0.00 34 1012.7
20260501181004 66 290 3.0 10.0 0.00 0.00 0.00 36 1012.8
20260501180504 66 236 3.0 14.0 0.00 0.00 0.00 36 1012.9
20260501180019 65 261 3.0 11.0 0.00 0.00 0.00 37 1013.0
20260501175507 65 236 4.0 11.0 0.00 0.00 0.00 37 1012.9
20260501175007 64 172 3.0 13.0 0.00 0.00 0.00 36 1013.1
20260501174518 64 213 6.0 13.0 0.00 0.00 0.00 37 1013.2
20260501174006 65 140 5.0 11.0 0.00 0.00 0.00 37 1013.3
20260501173507 65 119 3.0 7.0 0.00 0.00 0.00 38 1013.1
20260501173003 65 153 2.0 7.0 0.00 0.00 0.00 40 1013.3
20260501172503 64 242 2.0 14.0 0.00 0.00 0.00 37 1013.4
20260501172006 63 249 5.0 14.0 0.00 0.00 0.00 38 1013.5
20260501171509 63 238 6.0 13.0 0.00 0.00 0.00 37 1013.5
20260501170506 64 225 5.0 14.0 0.00 0.00 0.00 37 1013.8
20260501170012 64 266 2.0 14.0 0.00 0.00 0.00 39 1013.7
20260501165508 62 237 6.0 14.0 0.00 0.00 0.00 39 1013.7
20260501165006 62 194 3.0 11.0 0.00 0.00 0.00 40 1013.8
20260501164518 62 161 3.0 10.0 0.00 0.00 0.00 39 1013.8
20260501164012 63 130 3.0 9.0 0.00 0.00 0.00 39 1013.8
20260501163506 63 195 2.0 9.0 0.00 0.00 0.00 40 1013.8
20260501163020 63 146 2.0 9.0 0.00 0.00 0.00 38 1013.9
20260501162510 63 242 2.0 11.0 0.00 0.00 0.00 38 1014.0
20260501162008 63 193 1.0 11.0 0.00 0.00 0.00 38 1014.1
20260501161515 63 276 2.0 11.0 0.00 0.00 0.00 40 1014.1
20260501161003 61 269 5.0 10.0 0.00 0.00 0.00 38 1014.0
20260501160503 62 161 2.0 10.0 0.00 0.00 0.00 39 1014.2
20260501160006 63 207 2.0 10.0 0.00 0.00 0.00 39 1014.3
20260501155508 63 123 0.0 9.0 0.00 0.00 0.00 41 1014.3
20260501155008 62 282 3.0 9.0 0.00 0.00 0.00 38 1014.4
20260501154517 60 236 1.0 9.0 0.00 0.00 0.00 40 1014.5
20260501154007 61 271 3.0 9.0 0.00 0.00 0.00 41 1014.5
20260501153510 61 352 2.0 6.0 0.00 0.00 0.00 43 1014.5
20260501153022 60 221 1.0 4.0 0.00 0.00 0.00 42 1014.6
20260501152508 60 132 1.0 4.0 0.00 0.00 0.00 38 1014.6
20260501152006 61 243 1.0 5.0 0.00 0.00 0.00 40 1014.7
20260501151533 61 274 1.0 8.0 0.00 0.00 0.00 41 1014.7
20260501151012 59 229 2.0 8.0 0.00 0.00 0.00 42 1015.0
20260501150508 59 279 4.0 8.0 0.00 0.00 0.00 39 1015.0
20260501150012 59 267 2.0 4.0 0.00 0.00 0.00 40 1015.2
20260501145504 60 264 1.0 4.0 0.00 0.00 0.00 42 1015.2
20260501145005 60 200 1.0 4.0 0.00 0.00 0.00 44 1015.3
20260501144510 59 45 1.0 4.0 0.00 0.00 0.00 42 1015.3
20260501144006 60 303 0.0 4.0 0.00 0.00 0.00 42 1015.2
20260501143507 59 215 0.0 4.0 0.00 0.00 0.00 43 1015.2
20260501143016 59 265 1.0 4.0 0.00 0.00 0.00 45 1015.3
20260501142506 58 233 0.0 3.0 0.00 0.00 0.00 43 1015.4
20260501142008 57 209 1.0 4.0 0.00 0.00 0.00 44 1015.4
20260501141522 57 344 2.0 4.0 0.00 0.00 0.00 45 1015.3